Aérodrome :
LOGIN :

S'inscrire | Disclaimer

   EN    FR    IT 

 










Légende :    VFR   VFR Marginal   IFR   IFR Intensif   IFR Très Intensif
Visi : 
Plafond : 
>= 8 km
>= 3000ft
5 à 8 km
1000 à 3000 ft
1500m à 5 km
500 à 1000 ft
800 à 1500m
200 à 500 ft
< 800m
< 200 ft
Symboles :   Orages  Brouillard  Fortes neiges  Fortes précipitations  Vent > 20 kt
SIGMETs :   Divers  Orages  Givrage  Turbulence  Onde Orograph.  Cendres Volcan.






- Altitude de l'aérodrome : 324 ft
- Code IATA : KVB


ESGR - Skovde

DERNIER METAR :
  • 270250Z AUTO 17005KT 9999 FEW014/// OVC051/// 08/08 Q0999 REDZ REUP

METARs EXPIRÉS :
  • 270220Z AUTO 17004KT 9999 FEW015/// SCT038/// BKN055/// 08/08 Q0999
  • 270150Z AUTO 17005KT 9999 BKN055/// OVC066/// 08/07 Q0999
  • 270120Z AUTO 17003KT 9999 OVC057/// 08/08 Q0999
  • 270050Z AUTO 16004KT 9999 BKN047/// OVC066/// 08/08 Q0999 RESHUP
  • 270020Z AUTO 15004KT 9999 -DZ BKN051/// BKN094/// 08/08 Q0999

TAF N/A



MET'MAP, la Météo Aéronautique d'un coup d'oeil ! - Copyright ORBIFLY Décembre 2007 - Disclaimer

ORBIFLY MET'MAP TEAM :

Programmation & Développement : Alexandra Zaïnal
Sur une idée originale de : Baudouin d'Aumeries
Assistance à la programmation : Marc-Olivier Méhu
Soutien technique & logistique : Manuel Goepfert

Contact : metmap@orbifly.com




SOURCES & CREDITS :

   NOAA